Location: Stigler
(35.2540°N, 95.1230°W)
Time: 16:30:38
(UTC-05:00)

Centaur D AC-29 - Pass Details

Date: 26 September 2017
Orbit: 553 x 36286 km, 26.3° (Epoch: 20 October)

Event Time Altitude Azimuth Distance (km) Brightness Sun altitude
Rises 21:07:49 0° 255° (WSW) 8,357 7.7 -24.4°
Reaches altitude 10° 21:16:13 10° 248° (WSW) 4,714 6.1 -26.0°
Enters shadow 21:24:00 32° 192° (SSW) 1,465 2.8 -27.6°
